Location: Madrid
(40.4167°N, 3.7036°W)
Time: 13:09:58
(UTC+00:00)

ISS - Pass Details

Date: 11 February 2026
Orbit: 413 x 428 km, 51.6° (Epoch: 13 February)

Event Time Altitude Azimuth Distance (km) Brightness Sun altitude
Rises 06:01:08 0° 200° (SSW) 2,341 -0.1 -14.3°
Reaches altitude 10° 06:03:33 10° 183° (S) 1,481 -0.9 -13.8°
Maximum altitude 06:06:07 21° 132° (SE) 1,000 -1.1 -13.3°
Drops below altitude 10° 06:08:40 10° 82° (E) 1,485 0.3 -12.9°
Sets 06:11:05 0° 66° (ENE) 2,349 1.1 -12.4°
